Meteo pe oră la Dzialyn

Astăzi, 7 Martie, Duminică

Timp Temperatura Precipitaţii Vânt Presiune Umiditate
00:00 -2°C° 0 mm 6 m/s 756 mmHg 81%
01:00 -2°C° 0 mm 7 m/s 756 mmHg 82%
02:00 -2°C° 0 mm 7 m/s 755 mmHg 80%
03:00 -2°C° 0 mm 8 m/s 754 mmHg 78%
04:00 -2°C° 0 mm 8 m/s 754 mmHg 76%
05:00 -4°C° 0 mm 8 m/s 753 mmHg 78%
06:00 -4°C° 0 mm 8 m/s 753 mmHg 80%
07:00 -4°C° 0 mm 8 m/s 753 mmHg 82%
08:00 -4°C° 0 mm 9 m/s 752 mmHg 79%
09:00 -3°C° 0 mm 9 m/s 752 mmHg 77%
10:00 -1°C° 0 mm 9 m/s 752 mmHg 74%
11:00 -1°C° 0 mm 9 m/s 752 mmHg 73%
12:00 -1°C° 0 mm 9 m/s 752 mmHg 71%
13:00 -1°C° 0 mm 9 m/s 752 mmHg 70%
14:00 -1°C° 0 mm 8 m/s 751 mmHg 76%
15:00 -1°C° 0 mm 8 m/s 751 mmHg 83%
16:00 -2°C° 0 mm 8 m/s 751 mmHg 89%
17:00 -2°C° 0.4 mm 7 m/s 751 mmHg 91%
18:00 -3°C° 0.4 mm 6 m/s 751 mmHg 92%
19:00 -2°C° 0.4 mm 5 m/s 751 mmHg 94%
20:00 -3°C° 0.3 mm 4 m/s 751 mmHg 91%
21:00 -4°C° 0.3 mm 3 m/s 751 mmHg 87%
22:00 -3°C° 0.3 mm 2 m/s 751 mmHg 83%
23:00 -3°C° 0 mm 2 m/s 752 mmHg 85%

Mâine, 8 Martie, Luni

Timp Temperatura Precipitaţii Vânt Presiune Umiditate
00:00 -4°C° 0 mm 2 m/s 752 mmHg 88%
01:00 -4°C° 0 mm 2 m/s 752 mmHg 90%
02:00 -5°C° 0 mm 3 m/s 752 mmHg 88%
03:00 -5°C° 0 mm 3 m/s 752 mmHg 86%
04:00 -5°C° 0 mm 3 m/s 752 mmHg 84%
05:00 -5°C° 0 mm 3 m/s 752 mmHg 81%
06:00 -5°C° 0 mm 3 m/s 753 mmHg 78%
07:00 -5°C° 0 mm 4 m/s 753 mmHg 74%
08:00 -3°C° 0 mm 4 m/s 754 mmHg 69%
09:00 -2°C° 0 mm 4 m/s 754 mmHg 64%
10:00 -1°C° 0 mm 4 m/s 754 mmHg 58%
11:00 0°C° 0 mm 4 m/s 755 mmHg 57%
12:00 0°C° 0 mm 4 m/s 755 mmHg 56%
13:00 0°C° 0 mm 4 m/s 755 mmHg 55%
14:00 0°C° 0.1 mm 4 m/s 755 mmHg 56%
15:00 0°C° 0.1 mm 4 m/s 755 mmHg 56%
16:00 0°C° 0.1 mm 4 m/s 755 mmHg 57%
17:00 0°C° 0 mm 3 m/s 755 mmHg 64%
18:00 -2°C° 0 mm 3 m/s 755 mmHg 71%
19:00 -3°C° 0 mm 2 m/s 756 mmHg 79%
20:00 -3°C° 0 mm 2 m/s 756 mmHg 79%
21:00 -3°C° 0 mm 2 m/s 756 mmHg 80%
22:00 -3°C° 0 mm 2 m/s 756 mmHg 80%
23:00 -1°C° 0 mm 1 m/s 756 mmHg 80%

Poimâine, 9 Martie, Marţi

Timp Temperatura Precipitaţii Vânt Presiune Umiditate
00:00 -1°C° 0 mm 1 m/s 756 mmHg 81%
01:00 -1°C° 0 mm 1 m/s 756 mmHg 81%
02:00 -1°C° 0 mm 1 m/s 756 mmHg 81%
03:00 -1°C° 0 mm 1 m/s 756 mmHg 82%
04:00 -1°C° 0 mm 1 m/s 756 mmHg 82%
05:00 -1°C° 0 mm 1 m/s 756 mmHg 81%
06:00 -1°C° 0 mm 1 m/s 756 mmHg 81%
07:00 -2°C° 0 mm 0 m/s 756 mmHg 80%
08:00 -1°C° 0 mm 0 m/s 756 mmHg 75%
09:00 -1°C° 0 mm 0 m/s 757 mmHg 71%
10:00 0°C° 0 mm 0 m/s 757 mmHg 66%
11:00 +1°C° 0 mm 0 m/s 757 mmHg 61%
12:00 +1°C° 0 mm 0 m/s 757 mmHg 57%
13:00 +2°C° 0 mm 0 m/s 757 mmHg 52%
14:00 +2°C° 0 mm 0 m/s 757 mmHg 52%
15:00 +1°C° 0 mm 0 m/s 756 mmHg 52%
16:00 +1°C° 0 mm 0 m/s 756 mmHg 52%
17:00 0°C° 0 mm 0 m/s 756 mmHg 56%
18:00 -1°C° 0 mm 0 m/s 756 mmHg 61%
19:00 -1°C° 0 mm 1 m/s 757 mmHg 66%
20:00 -1°C° 0 mm 1 m/s 757 mmHg 67%
21:00 -1°C° 0 mm 1 m/s 757 mmHg 69%
22:00 -1°C° 0 mm 1 m/s 757 mmHg 71%
23:00 -3°C° 0 mm 2 m/s 757 mmHg 71%

10 Martie, Miercuri

Timp Temperatura Precipitaţii Vânt Presiune Umiditate
00:00 -3°C° 0 mm 2 m/s 757 mmHg 72%
01:00 -4°C° 0 mm 2 m/s 757 mmHg 72%
02:00 -4°C° 0 mm 2 m/s 757 mmHg 72%
03:00 -4°C° 0 mm 2 m/s 757 mmHg 72%
04:00 -4°C° 0 mm 2 m/s 757 mmHg 72%
05:00 -4°C° 0 mm 2 m/s 757 mmHg 70%
06:00 -3°C° 0 mm 2 m/s 757 mmHg 69%
07:00 -3°C° 0 mm 2 m/s 756 mmHg 67%
08:00 -2°C° 0 mm 3 m/s 756 mmHg 60%
09:00 0°C° 0 mm 3 m/s 756 mmHg 54%
10:00 0°C° 0 mm 4 m/s 756 mmHg 47%
11:00 +1°C° 0 mm 4 m/s 756 mmHg 44%
12:00 +3°C° 0 mm 4 m/s 756 mmHg 41%
13:00 +2°C° 0 mm 5 m/s 755 mmHg 39%
14:00 +3°C° 0 mm 4 m/s 755 mmHg 42%
15:00 +3°C° 0 mm 4 m/s 754 mmHg 46%
16:00 +3°C° 0 mm 3 m/s 753 mmHg 50%
17:00 +1°C° 0 mm 4 m/s 753 mmHg 54%
18:00 0°C° 0 mm 4 m/s 752 mmHg 58%
19:00 -1°C° 0 mm 4 m/s 752 mmHg 62%
20:00 -1°C° 0 mm 4 m/s 751 mmHg 63%
21:00 -1°C° 0 mm 5 m/s 751 mmHg 65%
22:00 -1°C° 0 mm 5 m/s 750 mmHg 67%
23:00 -1°C° 0 mm 5 m/s 750 mmHg 71%

11 Martie, Joi

Timp Temperatura Precipitaţii Vânt Presiune Umiditate
00:00 -1°C° 0 mm 5 m/s 749 mmHg 74%
01:00 -2°C° 0 mm 6 m/s 748 mmHg 78%
02:00 -1°C° 0 mm 6 m/s 747 mmHg 79%
03:00 -1°C° 0 mm 6 m/s 746 mmHg 81%
04:00 -1°C° 0 mm 6 m/s 745 mmHg 83%
05:00 -1°C° 0.2 mm 6 m/s 744 mmHg 86%
06:00 +1°C° 0.2 mm 6 m/s 744 mmHg 88%
07:00 +1°C° 0.2 mm 6 m/s 743 mmHg 91%
08:00 0°C° 0.4 mm 7 m/s 742 mmHg 92%
09:00 0°C° 0.4 mm 7 m/s 741 mmHg 93%
10:00 +2°C° 0.4 mm 7 m/s 741 mmHg 94%
11:00 +3°C° 0.6 mm 7 m/s 740 mmHg 94%
12:00 +3°C° 0.6 mm 7 m/s 739 mmHg 93%
13:00 +4°C° 0.6 mm 7 m/s 739 mmHg 93%
14:00 +5°C° 0.1 mm 7 m/s 738 mmHg 89%
15:00 +6°C° 0.1 mm 7 m/s 738 mmHg 85%
16:00 +6°C° 0.1 mm 7 m/s 737 mmHg 81%
17:00 +8°C° 0.1 mm 7 m/s 737 mmHg 80%
18:00 +7°C° 0.1 mm 8 m/s 736 mmHg 80%
19:00 +7°C° 0.1 mm 8 m/s 736 mmHg 79%
20:00 +6°C° 0.4 mm 8 m/s 736 mmHg 78%
21:00 +6°C° 0.4 mm 8 m/s 736 mmHg 76%
22:00 +5°C° 0.4 mm 7 m/s 736 mmHg 74%
23:00 +5°C° 0 mm 8 m/s 736 mmHg 74%

12 Martie, Vineri

Timp Temperatura Precipitaţii Vânt Presiune Umiditate
00:00 +3°C° 0 mm 9 m/s 736 mmHg 74%
01:00 +2°C° 0 mm 9 m/s 736 mmHg 74%
02:00 +2°C° 0 mm 9 m/s 737 mmHg 74%
03:00 +2°C° 0 mm 9 m/s 737 mmHg 74%
04:00 +2°C° 0 mm 9 m/s 738 mmHg 74%
05:00 +2°C° 0 mm 9 m/s 738 mmHg 77%
06:00 +2°C° 0 mm 10 m/s 738 mmHg 79%
07:00 +1°C° 0 mm 10 m/s 738 mmHg 82%
08:00 +2°C° 0.1 mm 11 m/s 739 mmHg 77%
09:00 +3°C° 0.1 mm 12 m/s 739 mmHg 72%
10:00 +3°C° 0.1 mm 12 m/s 739 mmHg 67%
11:00 +4°C° 0.1 mm 13 m/s 739 mmHg 65%
12:00 +4°C° 0.1 mm 13 m/s 739 mmHg 64%
13:00 +4°C° 0.1 mm 13 m/s 739 mmHg 62%
14:00 +4°C° 0.1 mm 12 m/s 740 mmHg 61%
15:00 +4°C° 0.1 mm 12 m/s 740 mmHg 61%
16:00 +4°C° 0.1 mm 11 m/s 741 mmHg 61%
17:00 +3°C° 0 mm 10 m/s 741 mmHg 64%
18:00 +2°C° 0 mm 9 m/s 742 mmHg 67%
19:00 +1°C° 0 mm 8 m/s 742 mmHg 71%
20:00 +2°C° 0 mm 7 m/s 743 mmHg 72%
21:00 +2°C° 0 mm 7 m/s 743 mmHg 74%
22:00 0°C° 0 mm 7 m/s 744 mmHg 76%
23:00 0°C° 0 mm 7 m/s 744 mmHg 76%
Arată mai mult

Formular de consimțământ

Meteoprog și furnizorii noștri de servicii pot stoca și accesa date personale, precum cookies, identificatori de dispozitiv sau alte tehnologii similare pe dispozitivul dumneavoastră și procesa astfel de date pentru a personaliza conținutul și reclamele, dar și pentru a oferi caracteristici de social media și pentru a analiza traficul.

  • Stocarea și/sau accesarea informațiilor pe dispozitivul dumneavoastră

    Cookies, identificatori de dispozitiv sau alte informații pot fi stocate sau accesate pe dispozitiv în scopurile indicate mai sus.

  • Reclame și conținut personalizat, evaluarea reclamelor și a conținutului, informații despre audiențe și dezvoltarea produselor

    Reclamele și conținutul pot fi personalizate pe baza unui profil. Pot fi adăugate date suplimentare pentru a personaliza mai bine reclamele și conținutul. Performanța reclamelor și conținutului poate fi măsurată. Pot fi obținute informații despre utilizatorii care au văzut reclamele și conținutul. Aceste date pot fi utilizate pentru a dezvolta sau îmbunătăți experiența utilizatorilor, sistemele și software-ul.

Dând clic pe ‘Sunt de acord’, permiteți utilizarea cookie-urilor menționate, a identificatorilor de dispozitiv, balizelor web sau altor tehnologii similare. Setările pot fi modificate din browser-ul dispozitivului dumneavoastră.

În anumite scopuri, interesele legitime pot prima asupra consimțământului. Puteți citi mai multe informații în acest sens în Politica privind Confidențialitatea Datelor și Cookie.